Location: Unspecified
(34.8700°N, 0.0000°E)
Time: 04:49:40
(UTC+00:00)

CBERS 4A - Visible Passes

Search period start: 05 April 2026 00:00
Search period end: 15 April 2026 00:00
Orbit: 622 x 626 km, 97.8° (Epoch: 29 March)

Date Brightness Start Highest point End Pass type
(mag) Time Alt. Az. Time Alt. Az. Time Alt. Az.
5 Apr ? 21:42:29 11° N 21:42:29 11° N 21:42:38 10° N visible
6 Apr ? 22:01:08 10° NNW 22:01:08 10° NNW 22:01:08 10° NNW visible
8 Apr ? 21:01:10 12° NNE 21:01:10 12° NNE 21:01:31 10° NNE visible
9 Apr ? 21:19:49 14° N 21:19:49 14° N 21:20:26 10° N visible
10 Apr ? 21:38:27 14° N 21:38:27 14° N 21:39:08 10° N visible
11 Apr ? 21:57:07 13° NNW 21:57:07 13° NNW 21:57:39 10° NNW visible
12 Apr ? 20:38:30 10° NNE 20:38:30 10° NNE 20:38:33 10° NNE visible
12 Apr ? 22:15:45 11° NNW 22:15:45 11° NNW 22:15:58 10° NNW visible
13 Apr ? 20:57:08 14° NNE 20:57:08 14° NNE 20:57:55 10° NNE visible
14 Apr ? 21:15:48 17° NNE 21:15:48 17° NNE 21:16:52 10° N visible
